User: anonymous
Location: Brno
(49.2000°N, 16.6330°E)
Time: 05:57:44
(UTC+02:00)
Language:

Cosmos 1206 Rocket - Orbit

View from above orbital plane
View from above orbital plane
View from above satellite
View from above satellite

Ground track
Ground track

The orbit data is extracted from the following two-line orbital elements,

1 11933U 80069B   14114.83127266  .00322781  40118-4  78302-3 0  3220
2 11933 081.1917 051.9031 0011104 128.7844 231.4421 15.96136918854841
Epoch (UTC): 24 April 2014 19:57:01
Eccentricity: 0.0011104
inclination: 81.1917°
perigee height: 278 km
apogee height: 292 km
right ascension of ascending node: 51.9031°
argument of perigee: 128.7844°
revolutions per day: 15.96136918
mean anomaly at epoch: 231.4421°
orbit number at epoch: 85484

The dashed part of the orbit path shows where the satellite is in the earth's shadow,  

DLR